Location: Cassano d�Adda
(45.5333°N, 9.5167°E)
Time: 04:43:42
(UTC+00:00)

Lacrosse 5 rocket - Pass Details

Date: 08 December 2019
Orbit: 464 x 633 km, 57.0° (Epoch: 18 January)

Event Time Altitude Azimuth Distance (km) Brightness Sun altitude
Rises 18:48:34 0° 275° (W) 2,760 6.0 -32.4°
Reaches altitude 10° 18:51:19 10° 291° (WNW) 1,830 4.7 -32.9°
Enters shadow 18:52:28 15° 304° (NW) 1,513 4.1 -33.1°
